[[{"header":{"parameterUnit":"m.s-1","parameterCategory":1,"la1":30.2991,"la2":30.254,"lo1":-89.0895,"lo2":-89.0444,"dy":0.0017,"dx":0.0017,"nx":28,"ny":28,"refTime":"2025-01-20T09:00:00:Z","depth":0,"parameterNumber":2,"parameterNumberName":"U-component_of_WINDS"},"data":[0,0,0,0,0,0,0,0,0,0,0,0,0,0,0,0,0,0,0,0,0,0,0,0,0,0,0,0,0,0,0,0,0,0,0,0,0,0,0,0,0,0,0,0,0,0,0,0,0,0,0,0,0,0,0,0,0,0,-1.9735,-1.9736,0,-1.9877,-1.9879,-1.9881,-1.9856,-1.9853,-1.9851,-1.9848,-2.0002,-2.0008,-2.0015,0,0,0,0,0,0,0,0,0,0,0,0,0,-1.9447,-1.9452,-1.9735,-1.9736,-1.9738,-1.9877,-1.9879,-1.9881,-1.9856,-1.9853,-1.985,-1.9847,-2.0,-2.0007,-2.0015,0,0,0,0,0,0,0,0,0,0,0,0,0,-1.9579,-1.9454,-1.9734,-1.9742,-1.9744,-1.9877,-1.9879,-1.9882,-1.9857,-1.9853,-1.9849,-1.9846,-1.9997,-2.0007,-2.0016,-2.0152,0,0,-2.0046,-2.005,0,0,0,0,0,0,0,0,-1.9572,-1.959,-1.9739,-1.9742,-1.9745,-1.9845,-1.9834,-1.9972,-1.9858,-1.9814,-1.9848,-1.9844,-1.9953,-1.9966,-2.0002,-2.0159,-2.0166,-2.0047,-2.0052,-2.0057,-2.0059,0,0,0,0,0,0,0,-1.9563,-1.9584,-1.9791,-1.9742,-1.9745,-1.9741,-1.9755,-1.986,-1.9904,-1.9818,-1.9816,-1.9833,-1.9954,-1.9992,-2.0005,-2.0168,-2.0046,-2.0055,-2.0061,-2.0065,-2.0444,-2.0448,0,0,0,0,0,0,-1.955,-1.9576,-1.9787,-1.9796,-1.9647,-1.9749,-1.9765,-1.9817,-1.9902,-1.9912,-1.9836,-1.9831,-1.9978,-1.9994,-2.001,-2.0176,-2.0057,-2.0066,-2.0071,-2.044,-2.0445,-2.045,0,0,0,0,0,0,-1.9544,-1.9569,-1.9781,-1.9685,-1.9712,-1.9758,-1.9816,-1.9821,-1.986,-1.9916,-1.9924,-1.9867,-1.9975,-1.9997,-2.0116,-2.0181,-2.007,-2.0079,-2.0435,-2.0442,-2.0448,-2.0507,0,0,0,0,0,0,-1.9536,-1.9567,-1.9618,-1.9687,-1.9717,-1.9883,-1.982,-1.9827,-1.9875,-1.9871,-1.9947,-1.9956,-1.9974,-2.0102,-2.0126,-2.0192,-2.0086,-2.043,-2.0438,-2.0445,-2.05,-2.0515,-2.0527,0,0,0,0,0,-1.9526,-1.963,-1.962,-1.9646,-1.9781,-1.9887,-1.9905,-1.9921,-1.9881,-1.9933,-1.9969,-1.9954,-2.0169,-2.0115,-2.0141,-2.0211,-2.0426,-2.0436,-2.0445,-2.0493,-2.0512,-2.0527,0,0,0,0,0,0,-1.9571,-1.964,-1.9629,-1.9759,-1.9817,-1.9882,-1.9949,-1.9939,-2.0012,-2.0005,-2.0023,-2.0041,-2.0163,-2.0198,-2.0137,-2.0347,-2.0292,-2.0307,-2.032,-2.0338,-2.0351,-2.0342,-2.0094,0,0,0,0,0,-1.9595,-1.9673,-1.973,-1.9839,-1.9868,-1.9903,-1.995,-1.9957,-2.0019,-2.0044,-2.0089,-2.0152,-2.0233,-2.0287,-2.0365,-2.0503,-2.0521,-2.0564,-2.0578,-2.059,-2.0604,-2.0681,-2.0701,-2.0481,-2.0481,-2.0481,0,0,-1.9648,-1.9695,-1.9744,-1.9849,-1.9895,-1.9977,-1.9925,-2.0014,-2.0076,-2.0059,-2.0174,-2.0209,-2.028,-2.041,-2.0469,-2.0443,-2.0668,-2.0602,-2.061,-2.0619,-2.0693,-2.0713,-2.0732,-2.0488,-2.0487,-2.0486,0,0,-1.9787,-1.9829,-1.9925,-1.9971,-2.0039,-2.0062,-2.0085,-2.0151,-2.0173,-2.0288,-2.0277,-2.0352,-2.0491,-2.0543,-2.0587,-2.0743,-2.0732,-2.0767,-2.0842,-2.0917,-2.0934,-2.0949,-2.1007,-2.1027,-2.0781,-2.0781,-2.0781,0,-1.9845,-1.9966,-1.9976,-2.0066,-2.0114,-2.0098,-2.0196,-2.0241,-2.0333,-2.0367,-2.0336,-2.051,-2.0557,-2.0699,-2.0737,-2.0772,-2.0801,-2.0761,-2.093,-2.0946,-2.096,-2.1015,-2.1037,-2.0785,-2.0784,-2.0784,-2.0784,0,-2.0034,-2.0119,-2.0188,-2.0274,-2.0329,-2.0423,-2.0449,-2.0504,-2.0505,-2.0531,-2.065,-2.0704,-2.0794,-2.0827,-2.0831,-2.097,-2.0952,-2.0925,-2.0871,-2.0985,-2.1037,-2.1058,-2.0791,-2.0789,-2.0788,-2.0787,0,0,-2.0209,-2.0297,-2.0323,-2.0361,-2.0435,-2.0502,-2.0595,-2.0679,-2.0727,-2.079,-2.087,-2.0988,-2.0963,-2.1013,-2.1022,-2.1087,-2.1208,-2.1052,-2.1054,-2.1081,-2.1367,-2.1389,-2.1413,-2.12,-2.1204,-2.1207,-2.1362,0,-2.0356,-2.0518,-2.0529,-2.0678,-2.0756,-2.0741,-2.0823,-2.0878,-2.0905,-2.0977,-2.1007,-2.1091,-2.105,-2.1081,-2.1144,-2.118,-2.1267,-2.1169,-2.1278,-2.1282,-2.1263,-2.144,-2.1463,-2.1607,-2.1382,-2.1386,-2.1388,0,-2.055,-2.0616,-2.0771,-2.0833,-2.0867,-2.0939,-2.1018,-2.1086,-2.1148,-2.1163,-2.1218,-2.1217,-2.1315,-2.1254,-2.139,-2.1324,-2.1368,-2.1393,-2.1399,-2.1412,-2.1344,-2.1461,-2.1653,-2.1675,-2.142,-2.1417,-2.1415,0,-2.0664,-2.0792,-2.0902,-2.0935,-2.1009,-2.1061,-2.1095,-2.1153,-2.1203,-2.1271,-2.1304,-2.1384,-2.1429,-2.1491,-2.1513,-2.1466,-2.1649,-2.159,-2.1666,-2.1666,-2.1708,-2.1706,-2.1913,-2.1733,-2.1732,-2.1732,-2.1731,0,-2.0829,-2.0926,-2.0954,-2.1022,-2.1129,-2.1141,-2.1248,-2.1279,-2.133,-2.1405,-2.1397,-2.1468,-2.149,-2.1566,-2.1583,-2.1694,-2.1714,-2.173,-2.1734,-2.1733,-2.1731,-2.1765,-2.1757,-2.1737,-2.1736,-2.1735,-2.1734,0,-2.0977,-2.0999,-2.1118,-2.1177,-2.1194,-2.1271,-2.1323,-2.1389,-2.1412,-2.1507,-2.153,-2.1569,-2.1657,-2.1683,-2.179,-2.1801,-2.1932,-2.1926,-2.1911,-2.1912,-2.1988,-2.1982,-2.2227,-2.2261,-2.2055,-2.2057,-2.2059,0,-2.1082,-2.1155,-2.1221,-2.1269,-2.1304,-2.1382,-2.1432,-2.1446,-2.1499,-2.1574,-2.1632,-2.1718,-2.1788,-2.193,-2.1969,-2.2051,-2.2048,-2.2128,-2.2061,-2.2057,-2.2052,-2.2049,-2.2057,-2.2142,-2.2144,-2.2146,-2.2147,0,-2.1267,-2.1274,-2.1345,-2.142,-2.1479,-2.1539,-2.1597,-2.1638,-2.1661,-2.1721,-2.1809,-2.1863,-2.197,-2.2057,-2.2139,-2.2176,-2.2167,-2.2167,-2.219,-2.2191,-2.218,-2.2189,-2.1949,-2.2163,-2.2161,-2.216,-2.2159,-2.2159,-2.1399,-2.1463,-2.1519,-2.1598,-2.1642,-2.1697,-2.1761,-2.1792,-2.1865,-2.1952,-2.1956,-2.2053,-2.2113,-2.2222,-2.2263,-2.234,-2.2317,-2.2349,-2.2358,-2.2366,-2.2373,-2.2165,-2.2354,-2.2354,-2.2354,-2.2353,-2.2353,0,-2.1585,-2.1619,-2.1692,-2.1772,-2.1835,-2.1816,-2.1879,-2.1934,-2.2018,-2.2073,-2.2141,-2.2243,-2.2327,-2.2371,-2.2454,-2.2508,-2.2506,-2.2529,-2.2527,-2.2536,-2.2388,-2.2361,-2.253,-2.253,-2.253,-2.253,-2.2529,-2.2529,-2.169,-2.1798,-2.1811,-2.1942,-2.1976,-2.2068,-2.2106,-2.2157,-2.2201,-2.2314,-2.2382,-2.2409,-2.2461,-2.2548,-2.2624,-2.2635,-2.2667,-2.2694,-2.2703,-2.2565,-2.2547,-2.253,-2.2505,-2.27,-2.27,-2.2845,-2.2846,-2.2847]},{"header":{"parameterUnit":"m.s-1","parameterCategory":1,"la1":30.2991,"la2":30.254,"lo1":-89.0895,"lo2":-89.0444,"dy":0.0017,"dx":0.0017,"nx":28,"ny":28,"refTime":"2025-01-20T09:00:00:Z","depth":0,"parameterNumber":3,"parameterNumberName":"V-component_of_WINDS"},"data":[0,0,0,0,0,0,0,0,0,0,0,0,0,0,0,0,0,0,0,0,0,0,0,0,0,0,0,0,0,0,0,0,0,0,0,0,0,0,0,0,0,0,0,0,0,0,0,0,0,0,0,0,0,0,0,0,0,0,-9.0514,-9.0514,0,-9.0574,-9.0575,-9.0575,-9.0453,-9.0449,-9.0445,-9.0441,-9.0499,-9.0504,-9.0509,0,0,0,0,0,0,0,0,0,0,0,0,0,-9.0287,-9.0292,-9.0514,-9.0514,-9.0515,-9.0574,-9.0575,-9.0576,-9.0454,-9.0449,-9.0444,-9.044,-9.0497,-9.0503,-9.0509,0,0,0,0,0,0,0,0,0,0,0,0,0,-9.037,-9.0294,-9.0514,-9.0462,-9.0458,-9.0574,-9.0575,-9.0576,-9.0455,-9.0449,-9.0443,-9.0437,-9.0495,-9.0502,-9.051,-9.0678,0,0,-9.0534,-9.0538,0,0,0,0,0,0,0,0,-9.0366,-9.0379,-9.0469,-9.0465,-9.0461,-9.05,-9.0516,-9.061,-9.0456,-9.0456,-9.0441,-9.0434,-9.0504,-9.051,-9.0535,-9.0681,-9.0683,-9.0535,-9.054,-9.0543,-9.0545,0,0,0,0,0,0,0,-9.036,-9.0376,-9.0537,-9.047,-9.0465,-9.0433,-9.0439,-9.0533,-9.0512,-9.0455,-9.0447,-9.0456,-9.05,-9.0527,-9.0535,-9.0684,-9.0535,-9.0542,-9.0546,-9.0549,-9.0969,-9.0975,0,0,0,0,0,0,-9.0362,-9.0372,-9.0535,-9.0539,-9.0398,-9.0442,-9.0448,-9.0494,-9.0511,-9.0508,-9.0461,-9.045,-9.0517,-9.0526,-9.0537,-9.0733,-9.0543,-9.055,-9.0555,-9.0963,-9.097,-9.0977,0,0,0,0,0,0,-9.0357,-9.0378,-9.0533,-9.0453,-9.047,-9.0453,-9.0505,-9.0498,-9.0525,-9.0515,-9.051,-9.0493,-9.0512,-9.0525,-9.0644,-9.0733,-9.0554,-9.0561,-9.0955,-9.0965,-9.0974,-9.1128,0,0,0,0,0,0,-9.0351,-9.0377,-9.0442,-9.0456,-9.0475,-9.0641,-9.051,-9.0503,-9.0539,-9.0525,-9.0544,-9.0541,-9.0509,-9.0633,-9.0652,-9.0741,-9.0567,-9.0947,-9.0959,-9.0971,-9.1115,-9.1142,-9.1165,0,0,0,0,0,-9.0344,-9.0482,-9.0446,-9.0466,-9.0557,-9.0647,-9.0658,-9.0619,-9.0547,-9.0611,-9.0605,-9.054,-9.0721,-9.0646,-9.0666,-9.0759,-9.0941,-9.0956,-9.097,-9.1104,-9.1137,-9.1164,0,0,0,0,0,0,-9.0478,-9.0483,-9.0443,-9.059,-9.0619,-9.0626,-9.0706,-9.0656,-9.0705,-9.069,-9.0638,-9.0644,-9.0771,-9.0777,-9.0693,-9.0921,-9.0818,-9.0837,-9.0913,-9.0944,-9.0969,-9.0964,-9.0574,0,0,0,0,0,-9.0525,-9.06,-9.0599,-9.0729,-9.0746,-9.0724,-9.0762,-9.073,-9.0757,-9.0768,-9.077,-9.0798,-9.086,-9.0903,-9.096,-9.1115,-9.1116,-9.1189,-9.1214,-9.1235,-9.1251,-9.1332,-9.1364,-9.1025,-9.1025,-9.1024,0,0,-9.0622,-9.0634,-9.0684,-9.0757,-9.0775,-9.0852,-9.0735,-9.0821,-9.0876,-9.0781,-9.0892,-9.0895,-9.0922,-9.106,-9.112,-9.1068,-9.1346,-9.1253,-9.127,-9.1275,-9.135,-9.1382,-9.1411,-9.1035,-9.1033,-9.1031,0,0,-9.0838,-9.0856,-9.0965,-9.0987,-9.1017,-9.1001,-9.1028,-9.1043,-9.1041,-9.1153,-9.1082,-9.1147,-9.1256,-9.1278,-9.1303,-9.1528,-9.1469,-9.1548,-9.1678,-9.1757,-9.1784,-9.1807,-9.1885,-9.1914,-9.1565,-9.1565,-9.1565,0,-9.0955,-9.1069,-9.1027,-9.1119,-9.1152,-9.107,-9.1179,-9.1201,-9.1248,-9.1272,-9.1214,-9.1349,-9.1361,-9.1502,-9.1557,-9.1581,-9.1607,-9.1545,-9.1783,-9.1806,-9.1828,-9.1902,-9.1931,-9.1574,-9.1573,-9.1572,-9.1571,0,-9.121,-9.129,-9.1374,-9.1423,-9.1466,-9.1566,-9.1537,-9.1585,-9.155,-9.154,-9.1653,-9.1666,-9.1723,-9.1755,-9.172,-9.189,-9.1857,-9.1792,-9.1687,-9.187,-9.1938,-9.1966,-9.1587,-9.1584,-9.1581,-9.1579,0,0,-9.1511,-9.1536,-9.1568,-9.1588,-9.1616,-9.1676,-9.1771,-9.1829,-9.187,-9.1905,-9.1982,-9.2077,-9.2017,-9.2046,-9.2013,-9.2083,-9.2258,-9.2009,-9.2009,-9.2054,-9.2443,-9.2491,-9.2525,-9.222,-9.2225,-9.223,-9.244,0,-9.1724,-9.189,-9.1855,-9.2017,-9.2089,-9.2013,-9.2095,-9.212,-9.2113,-9.2172,-9.2163,-9.223,-9.2147,-9.2164,-9.223,-9.2223,-9.2335,-9.2207,-9.2289,-9.2293,-9.2283,-9.2561,-9.2611,-9.281,-9.2467,-9.2472,-9.2475,0,-9.1995,-9.2041,-9.2211,-9.2226,-9.2255,-9.233,-9.2379,-9.2437,-9.2463,-9.2453,-9.2486,-9.2439,-9.2531,-9.2427,-9.2552,-9.2466,-9.2497,-9.2499,-9.2506,-9.251,-9.2394,-9.2571,-9.2872,-9.2901,-9.2517,-9.2514,-9.2511,0,-9.2196,-9.2301,-9.2415,-9.2435,-9.2456,-9.251,-9.2521,-9.2541,-9.2578,-9.262,-9.2643,-9.2696,-9.2725,-9.2766,-9.2734,-9.2661,-9.2864,-9.2757,-9.2856,-9.2857,-9.2901,-9.2898,-9.321,-9.2925,-9.2924,-9.2923,-9.2923,0,-9.2436,-9.2542,-9.2506,-9.2576,-9.2692,-9.265,-9.2766,-9.2767,-9.2786,-9.2853,-9.279,-9.2854,-9.281,-9.287,-9.2846,-9.2952,-9.2966,-9.2958,-9.295,-9.2963,-9.2964,-9.2982,-9.2967,-9.2931,-9.293,-9.2928,-9.2927,0,-9.268,-9.266,-9.2779,-9.2789,-9.2794,-9.2879,-9.2886,-9.2951,-9.2939,-9.3026,-9.3043,-9.3025,-9.3093,-9.3065,-9.3137,-9.312,-9.3256,-9.3231,-9.3248,-9.3241,-9.3341,-9.3331,-9.3673,-9.3715,-9.3405,-9.3408,-9.341,0,-9.2834,-9.2914,-9.2933,-9.2974,-9.299,-9.3058,-9.3095,-9.3057,-9.3098,-9.3133,-9.3192,-9.3255,-9.3302,-9.3414,-9.3405,-9.3459,-9.3433,-9.355,-9.3441,-9.3451,-9.3433,-9.3428,-9.3435,-9.3571,-9.3574,-9.3577,-9.358,0,-9.3109,-9.3095,-9.3152,-9.3206,-9.3253,-9.3293,-9.3327,-9.3364,-9.3327,-9.3376,-9.3445,-9.3482,-9.3555,-9.3617,-9.3665,-9.3673,-9.3621,-9.3614,-9.364,-9.3653,-9.3659,-9.3655,-9.3305,-9.3606,-9.3604,-9.3602,-9.36,-9.3599,-9.3311,-9.3378,-9.3402,-9.3467,-9.3489,-9.3523,-9.3583,-9.358,-9.3637,-9.3694,-9.3668,-9.3747,-9.3769,-9.3828,-9.3844,-9.3904,-9.3859,-9.3896,-9.3905,-9.3914,-9.3927,-9.3651,-9.3913,-9.3912,-9.3911,-9.3911,-9.391,0,-9.3581,-9.3593,-9.3654,-9.3704,-9.3755,-9.3702,-9.3737,-9.3782,-9.3854,-9.388,-9.3928,-9.4007,-9.4066,-9.4063,-9.4118,-9.4166,-9.4143,-9.4182,-9.4177,-9.4179,-9.3965,-9.3937,-9.42,-9.42,-9.4199,-9.4199,-9.4199,-9.4199,-9.3728,-9.3838,-9.3827,-9.3947,-9.3956,-9.4035,-9.4059,-9.4089,-9.4109,-9.42,-9.425,-9.4248,-9.4261,-9.4316,-9.4368,-9.4365,-9.4387,-9.4435,-9.4423,-9.4223,-9.4194,-9.4167,-9.414,-9.4441,-9.4441,-9.4631,-9.4633,-9.4635]}]]